Cecil Field, FL

7:21 PM EDT on April 24, 2018 (GMT -0400)
Cecil

Weather History for KVQQ - December, 2013

Change the Weather History Date:

Thursday, December 12, 2013

  Actual Average (KNIP) Record (KNIP)
Temperature  
Mean Temperature 50 °F -  
Max Temperature 64 °F 64 °F 79 °F (2015)
Min Temperature 35 °F 48 °F 37 °F (2010)
Degree Days  
Heating Degree Days 16    
Moisture  
Dew Point 38 °F    
Average Humidity 69    
Maximum Humidity 100    
Minimum Humidity 20    
Precipitation  
Precipitation 0.00 in - - ()
Sea Level Pressure  
Sea Level Pressure 30.32 in    
Wind  
Wind Speed 5 mph (North)    
Max Wind Speed 12 mph    
Max Gust Speed -    
Visibility 10 miles    
Events      
Averages and records for this station are not official NWS values.
T = Trace of Precipitation, MM = Missing Value Source: NWS Daily Summary

Daily Weather History Graph

Daily Weather History Graph

Search for Another Location

Airport or City:

Astronomy

Dec. 12, 2013 Rise Set
Actual Time 7:14 AM EST 5:28 PM EST
Civil Twilight 6:48 AM EST 5:54 PM EST
Nautical Twilight 6:18 AM EST 6:24 PM EST
Astronomical Twilight 5:49 AM EST 6:53 PM EST
Moon 2:21 PM EST (12/12) 2:50 AM EST (12/12)
Length of Visible Light 11h 06m
Length of Day
10h 13m
Waxing Gibbous, 80% of the Moon is Illuminated
Dec 12
Waxing Gibbous
Dec 17
Full
Dec 25
Last Quarter
Jan 1
New
Jan 7
First Quarter

Hourly Weather History & Observations

Time (EST) Temp. Windchill Dew Point Humidity Pressure Visibility Wind Dir Wind Speed Gust Speed Precip Events Conditions
12:15 AM 55.4 °F - 48.2 °F 77% 30.29 in 10.0 mi North 5.8 mph - N/A   Overcast
12:35 AM 55.4 °F - 48.2 °F 77% 30.29 in 10.0 mi North 3.5 mph - N/A   Overcast
12:55 AM 55.4 °F - 48.2 °F 77% 30.28 in 10.0 mi North 5.8 mph - N/A   Overcast
1:15 AM 55.4 °F - 46.4 °F 72% 30.28 in 10.0 mi North 5.8 mph - N/A   Overcast
1:35 AM 55.4 °F - 46.4 °F 72% 30.28 in 10.0 mi North 5.8 mph - N/A   Overcast
1:55 AM 55.4 °F - 46.4 °F 72% 30.28 in 10.0 mi NNW 3.5 mph - N/A   Overcast
2:15 AM 55.4 °F - 46.4 °F 72% 30.27 in 10.0 mi North 4.6 mph - N/A   Overcast
2:35 AM 55.4 °F - 46.4 °F 72% 30.27 in 10.0 mi North 4.6 mph - N/A   Overcast
2:55 AM 55.4 °F - 46.4 °F 72% 30.27 in 10.0 mi NNW 5.8 mph - N/A   Overcast
3:15 AM 55.4 °F - 46.4 °F 72% 30.27 in 10.0 mi North 6.9 mph - N/A   Overcast
3:35 AM 55.4 °F - 46.4 °F 72% 30.28 in 10.0 mi NNW 5.8 mph - N/A   Mostly Cloudy
3:55 AM 55.4 °F - 44.6 °F 67% 30.28 in 10.0 mi NNW 8.1 mph - N/A   Overcast
4:15 AM 53.6 °F - 42.8 °F 67% 30.28 in 10.0 mi NNW 6.9 mph - N/A   Overcast
4:35 AM 53.6 °F - 42.8 °F 67% 30.28 in 10.0 mi NNW 6.9 mph - N/A   Overcast
4:55 AM 53.6 °F - 41.0 °F 62% 30.28 in 10.0 mi NNW 9.2 mph - N/A   Overcast
5:15 AM 51.8 °F - 41.0 °F 67% 30.29 in 10.0 mi NNW 6.9 mph - N/A   Mostly Cloudy
5:35 AM 50.0 °F - 41.0 °F 71% 30.29 in 10.0 mi North 5.8 mph - N/A   Mostly Cloudy
5:55 AM 50.0 °F - 41.0 °F 71% 30.29 in 10.0 mi North 4.6 mph - N/A   Scattered Clouds
6:15 AM 48.2 °F - 41.0 °F 76% 30.31 in 10.0 mi NNW 4.6 mph - N/A   Partly Cloudy
6:35 AM 48.2 °F - 41.0 °F 76% 30.31 in 10.0 mi North 4.6 mph - N/A   Clear
6:50 AM 46.4 °F 42.9 °F 41.0 °F 81% 30.33 in 10.0 mi NNW 6.9 mph - N/A   Clear
7:50 AM 46.4 °F 43.5 °F 39.2 °F 76% 30.36 in 10.0 mi North 5.8 mph - N/A   Clear
8:50 AM 50.0 °F - 35.6 °F 58% 30.39 in 10.0 mi North 9.2 mph - N/A   Clear
9:50 AM 53.6 °F - 32.0 °F 44% 30.40 in 10.0 mi North 8.1 mph - N/A   Clear
10:50 AM 57.2 °F - 26.6 °F 31% 30.39 in 10.0 mi North 11.5 mph - N/A   Clear
11:50 AM 60.8 °F - 26.6 °F 27% 30.37 in 10.0 mi North 11.5 mph - N/A   Clear
12:50 PM 62.6 °F - 23.0 °F 22% 30.33 in 10.0 mi North 11.5 mph - N/A   Clear
1:50 PM 62.6 °F - 21.2 °F 20% 30.30 in 10.0 mi North 11.5 mph - N/A   Clear
2:50 PM 64.4 °F - 23.0 °F 21% 30.29 in 10.0 mi NNE 11.5 mph - N/A   Clear
3:50 PM 62.6 °F - 24.8 °F 24% 30.28 in 10.0 mi North 9.2 mph - N/A   Clear
4:50 PM 60.8 °F - 24.8 °F 25% 30.29 in 10.0 mi North 10.4 mph - N/A   Clear
5:50 PM 53.6 °F - 32.0 °F 44% 30.31 in 10.0 mi NNE 5.8 mph - N/A   Clear
6:50 PM 46.4 °F - 35.6 °F 66% 30.33 in 10.0 mi Calm Calm - N/A   Clear
7:50 PM 41.0 °F 37.1 °F 37.4 °F 87% 30.36 in 10.0 mi North 5.8 mph - N/A   Clear
8:15 PM 39.2 °F - 37.4 °F 93% 30.37 in 10.0 mi Calm Calm - N/A   Clear
8:35 PM 39.2 °F - 37.4 °F 93% 30.38 in 10.0 mi Calm Calm - N/A   Clear
8:55 PM 37.4 °F - 35.6 °F 93% 30.38 in 10.0 mi Calm Calm - N/A   Clear
9:15 PM 37.4 °F - 35.6 °F 93% 30.37 in 10.0 mi Calm Calm - N/A   Clear
9:35 PM 37.4 °F - 35.6 °F 93% 30.37 in 10.0 mi Calm Calm - N/A   Clear
9:55 PM 37.4 °F - 35.6 °F 93% 30.37 in 10.0 mi Calm Calm - N/A   Clear
10:15 PM 35.6 °F - 35.6 °F 100% 30.36 in 10.0 mi Calm Calm - N/A   Clear
10:35 PM 35.6 °F - 35.6 °F 100% 30.36 in 10.0 mi Calm Calm - N/A   Clear
10:55 PM 35.6 °F - 35.6 °F 100% 30.36 in 10.0 mi Calm Calm - N/A   Clear
11:15 PM 35.6 °F - 33.8 °F 93% 30.36 in 9.0 mi Calm Calm - N/A   Clear
11:35 PM 35.6 °F - 33.8 °F 93% 30.35 in 10.0 mi Calm Calm - N/A   Clear
11:55 PM 35.6 °F - 33.8 °F 93% 30.34 in 10.0 mi Calm Calm - N/A   Clear